DW5657 Weather Reports


Display with metric or nautical units.
time (UTC)temp
F
wind
direction
speed
MPH
gust
MPH
rain 1hr
in
rain 24hr
in
rain mn
in
humidity
%
barometer
mb
20260505011204 71 42 0.0 2.0 0.00 0.00 0.00 55 1004.4
20260505010703 71 29 0.0 1.0 0.00 0.00 0.00 55 1004.3
20260505010203 72 38 1.0 6.0 0.00 0.00 0.00 54 1004.4
20260505005204 72 31 0.0 2.0 0.00 0.00 0.00 53 1004.4
20260505004704 72 30 0.0 3.0 0.00 0.00 0.00 53 1004.3
20260505004204 73 32 0.0 3.0 0.00 0.00 0.00 52 1004.3
20260505003704 73 31 0.0 5.0 0.00 0.00 0.00 52 1004.3
20260505003203 73 27 1.0 6.0 0.00 0.00 0.00 52 1004.3
20260505002703 73 31 0.0 1.0 0.00 0.00 0.00 51 1004.3
20260505002204 73 26 1.0 6.0 0.00 0.00 0.00 50 1004.4
20260505001703 74 23 1.0 3.0 0.00 0.00 0.00 50 1004.4
20260505001204 74 28 1.0 5.0 0.00 0.00 0.00 50 1004.4
20260505000703 74 24 1.0 3.0 0.00 0.00 0.00 49 1004.5
20260505000204 74 24 1.0 6.0 0.00 0.00 0.00 49 1004.6
20260504234704 74 24 6.0 10.0 0.00 0.00 0.00 48 1004.7
20260504233703 75 33 3.0 12.0 0.00 0.00 0.00 47 1004.9
20260504232703 75 147 6.0 20.0 0.00 0.00 0.00 45 1005.0
20260504232204 76 164 7.0 20.0 0.00 0.00 0.00 45 1005.0
20260504231704 76 205 5.0 20.0 0.00 0.00 0.00 46 1004.9
20260504231203 76 188 5.0 10.0 0.00 0.00 0.00 46 1005.0
20260504230204 76 170 5.0 12.0 0.00 0.00 0.00 46 1005.0
20260504225703 76 200 6.0 12.0 0.00 0.00 0.00 46 1005.1
20260504225204 76 187 6.0 13.0 0.00 0.00 0.00 46 1005.1
20260504224703 76 132 5.0 13.0 0.00 0.00 0.00 46 1005.1
20260504224203 76 28 7.0 14.0 0.00 0.00 0.00 47 1005.2
20260504223703 76 220 4.0 12.0 0.00 0.00 0.00 50 1005.2
20260504223203 76 148 1.0 5.0 0.00 0.00 0.00 52 1005.2
20260504222203 76 90 1.0 6.0 0.00 0.00 0.00 51 1005.3
20260504221704 76 153 1.0 6.0 0.00 0.00 0.00 51 1005.3
20260504221203 76 132 1.0 6.0 0.00 0.00 0.00 52 1005.3
20260504220703 76 111 1.0 3.0 0.00 0.00 0.00 50 1005.1
20260504215704 76 109 1.0 3.0 0.00 0.00 0.00 49 1005.5
20260504215203 76 134 3.0 8.0 0.00 0.00 0.00 47 1005.6
20260504214703 76 138 1.0 3.0 0.00 0.00 0.00 49 1005.7
20260504214203 76 45 3.0 8.0 0.00 0.00 0.00 48 1005.9
20260504213203 76 103 2.0 7.0 0.00 0.00 0.00 47 1005.8
20260504212703 76 138 3.0 7.0 0.00 0.00 0.00 47 1006.0
20260504212203 76 223 4.0 8.0 0.00 0.00 0.00 47 1006.1
20260504211703 76 164 3.0 9.0 0.00 0.00 0.00 47 1006.0
20260504211205 76 184 3.0 9.0 0.00 0.00 0.00 49 1006.1
20260504210703 76 147 5.0 12.0 0.00 0.00 0.00 49 1006.2
20260504210203 76 245 3.0 7.0 0.00 0.00 0.00 50 1006.2
20260504205705 76 210 3.0 8.0 0.00 0.00 0.00 50 1006.2
20260504205204 76 221 5.0 9.0 0.00 0.00 0.00 50 1006.3
20260504204204 75 175 3.0 7.0 0.00 0.00 0.00 50 1006.4
20260504203703 75 190 5.0 14.0 0.00 0.00 0.00 50 1006.6
20260504203203 75 203 5.0 12.0 0.00 0.00 0.00 51 1006.7
20260504202704 75 203 5.0 8.0 0.00 0.00 0.00 51 1006.7
20260504202203 75 221 2.0 9.0 0.00 0.00 0.00 51 1006.7
20260504201703 75 216 3.0 10.0 0.00 0.00 0.00 52 1006.8
20260504201204 74 239 2.0 10.0 0.00 0.00 0.00 52 1007.0
20260504200703 74 226 5.0 12.0 0.00 0.00 0.00 52 1006.9
20260504200203 74 203 2.0 6.0 0.00 0.00 0.00 55 1007.0
20260504195704 73 220 5.0 12.0 0.00 0.00 0.00 53 1006.9
20260504195203 73 204 5.0 12.0 0.00 0.00 0.00 54 1007.1
20260504194203 72 200 2.0 8.0 0.00 0.00 0.00 57 1007.3
20260504193704 72 212 2.0 8.0 0.00 0.00 0.00 59 1007.4
20260504192203 71 175 2.0 5.0 0.00 0.00 0.00 60 1007.7
20260504191704 71 236 3.0 6.0 0.00 0.00 0.00 60 1007.7
20260504191204 70 225 2.0 6.0 0.00 0.00 0.00 61 1008.1
20260504190205 70 210 2.0 7.0 0.00 0.00 0.00 61 1008.1
20260504185704 69 177 1.0 6.0 0.00 0.00 0.00 62 1008.2
20260504184705 69 209 2.0 8.0 0.00 0.00 0.00 61 1008.3
20260504183703 70 213 2.0 8.0 0.00 0.00 0.00 60 1008.3
20260504183204 70 211 5.0 12.0 0.00 0.00 0.00 59 1008.2
20260504182704 70 217 4.0 12.0 0.00 0.00 0.00 59 1008.2
20260504182204 70 189 5.0 9.0 0.00 0.00 0.00 59 1008.1
20260504181204 70 209 3.0 7.0 0.00 0.00 0.00 58 1007.9
20260504180703 70 200 3.0 8.0 0.00 0.00 0.00 58 1007.8
20260504174704 70 207 6.0 13.0 0.00 0.00 0.00 57 1007.4
20260504174203 70 212 6.0 14.0 0.00 0.00 0.00 57 1007.4
20260504173703 70 214 7.0 14.0 0.00 0.00 0.00 58 1007.4
20260504173203 70 214 5.0 13.0 0.00 0.00 0.00 60 1007.5
20260504172703 69 207 3.0 9.0 0.00 0.00 0.00 60 1007.7
20260504172204 69 218 4.0 7.0 0.00 0.00 0.00 61 1007.6
20260504171704 68 216 3.0 9.0 0.00 0.00 0.00 62 1007.6
20260504171204 68 199 1.0 2.0 0.00 0.00 0.00 62 1007.1
20260504170204 68 163 2.0 9.0 0.00 0.00 0.00 61 1007.4
20260504160204 67 13 1.0 3.0 0.00 0.00 0.00 61 1008.3
20260504150705 63 174 1.0 3.0 0.00 0.00 0.00 65 1008.5
20260504150203 63 192 1.0 5.0 0.00 0.00 0.00 64 1008.6
20260504141205 61 211 1.0 7.0 0.00 0.00 0.00 66 1008.6
20260504140704 60 246 1.0 7.0 0.00 0.00 0.00 68 1008.7
20260504140203 60 190 1.0 6.0 0.00 0.00 0.00 67 1008.7
20260504130205 56 84 1.0 3.0 0.00 0.00 0.00 70 1009.1
20260504120203 54 95 2.0 6.0 0.00 0.00 0.00 70 1009.2
20260504110204 52 117 1.0 5.0 0.00 0.00 0.00 69 1008.9
20260504081704 53 111 0.0 0.0 0.00 0.00 0.00 63 1010.0
20260504081204 53 104 0.0 0.0 0.00 0.00 0.00 63 1010.0
20260504080703 53 98 0.0 0.0 0.00 0.00 0.00 63 1010.1
20260504070204 53 96 0.0 3.0 0.00 0.00 0.00 62 1010.4
20260504060205 53 82 0.0 0.0 0.00 0.00 0.00 61 1011.2
20260504050703 53 92 0.0 1.0 0.00 0.00 0.00 60 1011.7
20260504050204 53 106 0.0 0.0 0.00 0.00 0.00 60 1011.7
20260504045703 53 102 0.0 1.0 0.00 0.00 0.00 60 1011.8
20260504045204 53 92 0.0 2.0 0.00 0.00 0.00 60 1011.7
20260504044704 53 103 1.0 3.0 0.00 0.00 0.00 61 1011.9
20260504044203 53 88 0.0 2.0 0.00 0.00 0.00 61 1011.9
20260504043704 53 111 0.0 1.0 0.00 0.00 0.00 61 1012.0
20260504043203 53 46 0.0 0.0 0.00 0.00 0.00 61 1012.0
20260504042703 53 77 0.0 0.0 0.00 0.00 0.00 61 1011.9
20260504042203 53 105 0.0 0.0 0.00 0.00 0.00 60 1012.0
20260504041704 53 55 0.0 0.0 0.00 0.00 0.00 60 1012.0
20260504041204 53 64 0.0 0.0 0.00 0.00 0.00 60 1012.1
20260504040704 54 88 0.0 0.0 0.00 0.00 0.00 60 1012.1
20260504040205 54 77 0.0 0.0 0.00 0.00 0.00 60 1012.2
20260504035704 54 82 0.0 2.0 0.00 0.00 0.00 59 1012.3
20260504035204 54 67 0.0 0.0 0.00 0.00 0.00 59 1012.3
20260504034705 54 69 0.0 0.0 0.00 0.00 0.00 59 1012.4
20260504034204 54 65 0.0 0.0 0.00 0.00 0.00 58 1012.5
20260504033704 54 65 0.0 0.0 0.00 0.00 0.00 58 1012.6
20260504033203 55 66 0.0 1.0 0.00 0.00 0.00 58 1012.6
20260504032704 55 81 0.0 0.0 0.00 0.00 0.00 57 1012.6
20260504032204 55 74 0.0 0.0 0.00 0.00 0.00 57 1012.6
20260504031703 55 73 0.0 0.0 0.00 0.00 0.00 56 1012.6
20260504031205 55 74 0.0 2.0 0.00 0.00 0.00 56 1012.6
20260504030704 55 92 0.0 0.0 0.00 0.00 0.00 56 1012.6
20260504030205 56 91 0.0 0.0 0.00 0.00 0.00 55 1012.6
20260504025703 56 90 0.0 0.0 0.00 0.00 0.00 55 1012.7
20260504025204 56 88 0.0 0.0 0.00 0.00 0.00 55 1012.7
20260504024703 56 63 0.0 0.0 0.00 0.00 0.00 54 1012.7
20260504024203 56 62 0.0 0.0 0.00 0.00 0.00 54 1012.8
20260504023704 57 66 0.0 0.0 0.00 0.00 0.00 54 1012.8
20260504023205 57 96 0.0 0.0 0.00 0.00 0.00 53 1012.8
20260504022704 57 71 0.0 1.0 0.00 0.00 0.00 53 1012.8
20260504022204 57 88 0.0 1.0 0.00 0.00 0.00 53 1012.9
20260504021703 57 107 0.0 2.0 0.00 0.00 0.00 53 1012.8
20260504021204 57 82 0.0 2.0 0.00 0.00 0.00 52 1012.7
20260504020204 58 99 0.0 2.0 0.00 0.00 0.00 52 1012.8
20260504015704 58 99 0.0 3.0 0.00 0.00 0.00 52 1012.7
20260504014704 58 97 0.0 0.0 0.00 0.00 0.00 50 1012.7
20260504014204 58 93 0.0 3.0 0.00 0.00 0.00 50 1012.6
20260504013704 58 99 3.0 10.0 0.00 0.00 0.00 49 1012.6
20260504013205 58 97 3.0 10.0 0.00 0.00 0.00 47 1012.6
20260504012704 58 87 1.0 3.0 0.00 0.00 0.00 47 1012.4
20260504012205 58 92 2.0 5.0 0.00 0.00 0.00 46 1012.5
20260504011705 58 99 0.0 2.0 0.00 0.00 0.00 46 1012.4